Hattiesburg, MS

3:38 PM CDT on April 20, 2018 (GMT -0500)
Chain Municipal

Weather History for KHBG - May, 2013

Change the Weather History Date:

Thursday, May 23, 2013

  Actual Average Record
Temperature  
Mean Temperature 76 °F 75 °F  
Max Temperature 88 °F 87 °F 97 °F (1956)
Min Temperature 63 °F 64 °F 47 °F (2002)
Degree Days  
Heating Degree Days 0 0  
Month to date heating degree days 33 5  
Since 1 July heating degree days 1864 1983  
Cooling Degree Days 11 10  
Month to date cooling degree days 135 184  
Year to date cooling degree days 258 324  
Growing Degree Days 25 (Base 50)    
Moisture  
Dew Point 66 °F    
Average Humidity 72    
Maximum Humidity 100    
Minimum Humidity 43    
Precipitation  
Precipitation 0.00 in 0.16 in 2.18 in (2017)
Month to date precipitation 6.15 3.66  
Year to date precipitation 37.12 25.22  
Sea Level Pressure  
Sea Level Pressure 30.02 in    
Wind  
Wind Speed 2 mph (WNW)    
Max Wind Speed 10 mph    
Max Gust Speed 14 mph    
Visibility 10 miles    
Events      
T = Trace of Precipitation, MM = Missing Value Source: NWS Daily Summary

Daily Weather History Graph

Daily Weather History Graph

Search for Another Location

Airport or City:

Astronomy

May. 23, 2013 Rise Set
Actual Time 5:56 AM CDT 7:51 PM CDT
Civil Twilight 5:29 AM CDT 8:18 PM CDT
Nautical Twilight 4:56 AM CDT 8:51 PM CDT
Astronomical Twilight 4:21 AM CDT 9:26 PM CDT
Moon 6:28 PM CDT (5/23) 4:34 AM CDT (5/23)
Length of Visible Light 14h 48m
Length of Day
13h 54m
Waxing Gibbous, 97% of the Moon is Illuminated
May 23
Waxing Gibbous
May 24
Full
May 31
Last Quarter
Jun 8
New
Jun 16
First Quarter

Hourly Weather History & Observations

Time (CDT) Temp. Heat Index Dew Point Humidity Pressure Visibility Wind Dir Wind Speed Gust Speed Precip Events Conditions
12:53 AM 69.1 °F - 66.0 °F 90% 29.97 in 10.0 mi South 3.5 mph - N/A   Clear
1:53 AM 66.9 °F - 64.9 °F 93% 29.96 in 10.0 mi Calm Calm - N/A   Clear
2:53 AM 66.0 °F - 64.9 °F 96% 29.96 in 10.0 mi Calm Calm - N/A   Clear
3:53 AM 64.9 °F - 64.0 °F 97% 29.97 in 10.0 mi Calm Calm - N/A   Clear
4:53 AM 64.9 °F - 63.0 °F 93% 29.99 in 10.0 mi Calm Calm - 0.01 in   Clear
5:53 AM 64.0 °F - 62.1 °F 93% 30.01 in 10.0 mi Calm Calm - N/A   Clear
6:05 AM 62.6 °F - 62.6 °F 100% 30.02 in 10.0 mi Calm Calm - N/A   Scattered Clouds
6:14 AM 62.6 °F - 62.6 °F 100% 30.03 in 10.0 mi Calm Calm - N/A   Mostly Cloudy
6:36 AM 64.4 °F - 62.6 °F 94% 30.04 in 10.0 mi Calm Calm - N/A   Scattered Clouds
6:46 AM 64.4 °F - 62.6 °F 94% 30.04 in 10.0 mi Calm Calm - N/A   Mostly Cloudy
6:53 AM 64.9 °F - 63.0 °F 93% 30.03 in 10.0 mi Calm Calm - N/A   Mostly Cloudy
7:13 AM 66.2 °F - 64.4 °F 94% 30.05 in 10.0 mi Calm Calm - N/A   Overcast
7:38 AM 68.0 °F - 66.2 °F 94% 30.05 in 10.0 mi Calm Calm - N/A   Scattered Clouds
7:53 AM 69.1 °F - 66.9 °F 93% 30.05 in 10.0 mi Calm Calm - N/A   Clear
8:53 AM 75.0 °F - 69.1 °F 82% 30.06 in 10.0 mi Calm Calm - N/A   Clear
9:53 AM 80.1 °F 83.2 °F 70.0 °F 71% 30.06 in 10.0 mi Calm Calm - N/A   Partly Cloudy
10:08 AM 78.8 °F - 69.8 °F 74% 30.06 in 10.0 mi Calm Calm - N/A   Mostly Cloudy
10:15 AM 78.8 °F - 69.8 °F 74% 30.06 in 10.0 mi Variable 3.5 mph - N/A   Scattered Clouds
10:53 AM 80.1 °F 82.7 °F 68.0 °F 67% 30.06 in 10.0 mi Calm Calm - N/A   Partly Cloudy
11:53 AM 84.0 °F 86.3 °F 66.0 °F 55% 30.06 in 10.0 mi North 3.5 mph - N/A   Clear
12:53 PM 84.9 °F 86.6 °F 64.9 °F 51% 30.05 in 10.0 mi NNE 3.5 mph - N/A   Clear
1:53 PM 84.0 °F 85.8 °F 64.9 °F 53% 30.04 in 10.0 mi Calm Calm - N/A   Scattered Clouds
2:53 PM 87.1 °F 88.9 °F 64.9 °F 48% 30.02 in 10.0 mi WSW 6.9 mph - N/A   Partly Cloudy
3:53 PM 88.0 °F 89.6 °F 64.9 °F 46% 30.00 in 10.0 mi WNW 6.9 mph - N/A   Mostly Cloudy
4:53 PM 88.0 °F 89.6 °F 64.9 °F 46% 30.00 in 10.0 mi West 8.1 mph - N/A   Scattered Clouds
5:53 PM 87.1 °F 87.8 °F 63.0 °F 44% 29.98 in 10.0 mi West 4.6 mph - N/A   Clear
6:53 PM 86.0 °F 87.6 °F 64.9 °F 49% 29.99 in 10.0 mi North 3.5 mph - N/A   Clear
7:53 PM 80.1 °F 82.9 °F 69.1 °F 69% 30.01 in 10.0 mi Calm Calm - N/A   Clear
8:53 PM 75.9 °F - 69.1 °F 79% 30.02 in 10.0 mi Calm Calm - N/A   Clear
9:53 PM 73.9 °F - 70.0 °F 87% 30.03 in 10.0 mi Calm Calm - N/A   Clear
10:53 PM 73.0 °F - 70.0 °F 90% 30.04 in 10.0 mi Calm Calm - N/A   Clear
11:53 PM 71.1 °F - 70.0 °F 96% 30.05 in 10.0 mi Calm Calm - N/A   Scattered Clouds